EW8148 Weather Reports


time (UTC)temp
C
wind
direction
speed
KPH
gust
KPH
rain 1hr
cm
rain 24hr
cm
rain mn
cm
humidity
%
barometer
mb
20260504110307 11 39 0.0 0.0 0.00 0.00 0.00 74 1008.7
20260504100258 12 39 0.0 0.0 0.00 0.00 0.00 68 1008.5
20260504081753 13 39 0.0 0.0 0.00 0.00 0.00 61 1008.4
20260504081252 13 39 0.0 0.0 0.00 0.00 0.00 61 1008.4
20260504080751 13 39 0.0 0.0 0.00 0.00 0.00 61 1008.5
20260504080253 14 39 0.0 0.0 0.00 0.00 0.00 59 1008.5
20260504070256 15 39 0.0 0.0 0.00 0.00 0.00 57 1008.6
20260504070251 15 39 0.0 0.0 0.00 0.00 0.00 58 1008.6
20260504060245 15 39 0.0 1.6 0.00 0.00 0.00 59 1008.5
20260504050739 18 39 1.6 3.2 0.00 0.00 0.00 48 1008.3
20260504050245 18 47 0.0 3.2 0.00 0.00 0.00 51 1008.3
20260504050240 18 39 0.0 3.2 0.00 0.00 0.00 49 1008.3
20260504045238 18 47 0.0 3.2 0.00 0.00 0.00 47 1008.3
20260504044737 18 27 0.0 4.8 0.00 0.00 0.00 50 1008.3
20260504044236 18 30 0.0 4.8 0.00 0.00 0.00 47 1008.3
20260504043738 18 44 0.0 1.6 0.00 0.00 0.00 49 1008.3
20260504043239 18 44 0.0 1.6 0.00 0.00 0.00 49 1008.2
20260504042737 19 44 0.0 3.2 0.00 0.00 0.00 48 1008.2
20260504042238 19 44 0.0 3.2 0.00 0.00 0.00 49 1008.2
20260504041737 20 24 1.6 8.0 0.00 0.00 0.00 47 1008.1
20260504041245 20 53 1.6 4.8 0.00 0.00 0.00 46 1008.1
20260504041238 20 21 1.6 8.0 0.00 0.00 0.00 44 1008.1
20260504040907 20 50 1.6 4.8 0.00 0.00 0.00 43 1008.1
20260504035735 19 23 0.0 1.6 0.00 0.00 0.00 48 1008.1
20260504035234 19 23 0.0 0.0 0.00 0.00 0.00 51 1008.1
20260504034735 20 22 0.0 1.6 0.00 0.00 0.00 50 1008.1
20260504034241 21 22 0.0 1.6 0.00 0.00 0.00 44 1008.0
20260504034234 20 22 0.0 1.6 0.00 0.00 0.00 50 1008.0
20260504033734 20 22 0.0 1.6 0.00 0.00 0.00 47 1008.0
20260504032734 21 23 0.0 4.8 0.00 0.00 0.00 43 1008.0
20260504032235 21 22 0.0 4.8 0.00 0.00 0.00 48 1008.0
20260504031737 21 75 0.0 1.6 0.00 0.00 0.00 44 1008.0
20260504031732 22 76 0.0 3.2 0.00 0.00 0.00 46 1008.0
20260504030734 22 75 0.0 3.2 0.00 0.00 0.00 42 1008.1
20260504030230 22 37 1.6 8.0 0.00 0.00 0.00 40 1008.0
20260504025730 23 40 1.6 8.0 0.00 0.00 0.00 41 1007.9
20260504025237 23 83 1.6 4.8 0.00 0.00 0.00 39 1007.9
20260504025230 23 26 1.6 4.8 0.00 0.00 0.00 40 1007.9
20260504024854 23 34 1.6 4.8 0.00 0.00 0.00 41 1007.9
20260504023730 23 43 1.6 6.4 0.00 0.00 0.00 40 1007.9
20260504023231 23 44 1.6 6.4 0.00 0.00 0.00 39 1007.9
20260504022732 23 54 1.6 6.4 0.00 0.00 0.00 40 1007.9
20260504022235 24 20 1.6 6.4 0.00 0.00 0.00 39 1007.9
20260504022229 24 7 1.6 4.8 0.00 0.00 0.00 42 1007.9
20260504021227 24 16 1.6 6.4 0.00 0.00 0.00 39 1007.9
20260504020726 25 84 1.6 6.4 0.00 0.00 0.00 38 1008.0
20260504020232 25 23 1.6 8.0 0.00 0.00 0.00 37 1008.0
20260504020226 25 288 1.6 6.4 0.00 0.00 0.00 38 1007.9
20260504015226 25 79 1.6 8.0 0.00 0.00 0.00 37 1008.0
20260504014725 25 109 1.6 8.0 0.00 0.00 0.00 36 1008.1
20260504014223 25 32 1.6 8.0 0.00 0.00 0.00 35 1008.1
20260504013725 25 91 1.6 4.8 0.00 0.00 0.00 35 1008.1
20260504013223 26 82 1.6 4.8 0.00 0.00 0.00 35 1008.0
20260504012722 26 18 1.6 8.0 0.00 0.00 0.00 35 1008.1
20260504012219 26 107 1.6 8.0 0.00 0.00 0.00 34 1008.1
20260504011721 26 15 3.2 12.9 0.00 0.00 0.00 34 1008.2
20260504011220 26 82 3.2 12.9 0.00 0.00 0.00 34 1008.2
20260504010723 26 38 4.8 12.9 0.00 0.00 0.00 33 1008.2
20260504010720 26 43 3.2 12.9 0.00 0.00 0.00 34 1008.2
20260504005722 26 73 4.8 9.7 0.00 0.00 0.00 33 1008.4
20260504005220 26 88 4.8 11.3 0.00 0.00 0.00 34 1008.4
20260504004720 26 59 4.8 11.3 0.00 0.00 0.00 35 1008.5
20260504004221 26 17 4.8 11.3 0.00 0.00 0.00 34 1008.5
20260504003726 26 65 4.8 11.3 0.00 0.00 0.00 35 1008.6
20260504003718 26 94 4.8 11.3 0.00 0.00 0.00 34 1008.6
20260504002716 26 79 4.8 14.5 0.00 0.00 0.00 34 1008.6
20260504002216 26 70 4.8 14.5 0.00 0.00 0.00 35 1008.6
20260504001715 26 71 4.8 12.9 0.00 0.00 0.00 35 1008.7
20260504001217 26 7 6.4 12.9 0.00 0.00 0.00 35 1008.7
20260504000715 26 25 6.4 16.1 0.00 0.00 0.00 35 1008.7
20260504000215 26 12 6.4 16.1 0.00 0.00 0.00 35 1008.8
20260503235717 26 78 4.8 12.9 0.00 0.00 0.00 35 1008.8
20260503235216 26 49 4.8 14.5 0.00 0.00 0.00 35 1008.9
20260503234717 26 86 8.0 14.5 0.00 0.00 0.00 36 1009.0
20260503234217 26 88 8.0 17.7 0.00 0.00 0.00 36 1009.0
20260503233722 26 18 4.8 12.9 0.00 0.00 0.00 35 1009.0
20260503233716 26 32 6.4 17.7 0.00 0.00 0.00 35 1009.1
20260503232717 26 44 4.8 14.5 0.00 0.00 0.00 35 1009.2
20260503232216 26 79 6.4 14.5 0.00 0.00 0.00 37 1009.1
20260503231717 26 28 6.4 14.5 0.00 0.00 0.00 35 1009.3
20260503231215 26 78 6.4 14.5 0.00 0.00 0.00 35 1009.4
20260503230717 26 339 6.4 17.7 0.00 0.00 0.00 35 1009.4
20260503230217 26 69 6.4 17.7 0.00 0.00 0.00 35 1009.4
20260503225716 26 44 4.8 12.9 0.00 0.00 0.00 36 1009.5
20260503225216 26 42 6.4 16.1 0.00 0.00 0.00 36 1009.6
20260503224717 26 101 6.4 16.1 0.00 0.00 0.00 35 1009.6
20260503224215 27 28 4.8 11.3 0.00 0.00 0.00 36 1009.7
20260503223717 27 23 4.8 12.9 0.00 0.00 0.00 36 1009.7
20260503223216 26 13 4.8 12.9 0.00 0.00 0.00 36 1009.9
20260503222718 27 86 4.8 11.3 0.00 0.00 0.00 36 1009.9
20260503222217 26 70 6.4 11.3 0.00 0.00 0.00 37 1009.9
20260503221715 26 81 6.4 11.3 0.00 0.00 0.00 37 1009.9
20260503221217 26 28 6.4 11.3 0.00 0.00 0.00 37 1010.1
20260503220717 26 82 6.4 12.9 0.00 0.00 0.00 37 1010.1
20260503220216 26 79 8.0 14.5 0.00 0.00 0.00 38 1010.1
20260503215716 26 150 8.0 14.5 0.00 0.00 0.00 38 1010.2
20260503215215 26 84 8.0 16.1 0.00 0.00 0.00 38 1010.3
20260503214722 26 127 4.8 11.3 0.00 0.00 0.00 37 1010.4
20260503214715 26 11 6.4 16.1 0.00 0.00 0.00 37 1010.4
20260503214216 26 359 3.2 11.3 0.00 0.00 0.00 38 1010.4
20260503213838 26 30 4.8 12.9 0.00 0.00 0.00 38 1010.5
20260503212716 25 84 6.4 12.9 0.00 0.00 0.00 38 1010.6
20260503212216 25 88 4.8 9.7 0.00 0.00 0.00 38 1010.6
20260503211723 25 106 4.8 14.5 0.00 0.00 0.00 38 1010.7
20260503211717 26 69 4.8 14.5 0.00 0.00 0.00 38 1010.7
20260503210715 25 98 4.8 12.9 0.00 0.00 0.00 38 1010.8
20260503210220 25 85 4.8 12.9 0.00 0.00 0.00 38 1010.8
20260503210215 25 205 4.8 12.9 0.00 0.00 0.00 38 1010.8
20260503205215 26 110 4.8 16.1 0.00 0.00 0.00 37 1010.9
20260503204714 25 259 4.8 16.1 0.00 0.00 0.00 38 1011.0
20260503204212 25 332 4.8 14.5 0.00 0.00 0.00 37 1011.0
20260503203711 25 39 4.8 17.7 0.00 0.00 0.00 37 1011.1
20260503203212 25 342 6.4 17.7 0.00 0.00 0.00 38 1011.1
20260503202716 25 90 4.8 16.1 0.00 0.00 0.00 39 1011.2
20260503202212 25 77 4.8 14.5 0.00 0.00 0.00 40 1011.2
20260503201713 25 70 3.2 14.5 0.00 0.00 0.00 40 1011.4
20260503201214 25 50 4.8 14.5 0.00 0.00 0.00 39 1011.5
20260503200716 24 34 6.4 16.1 0.00 0.00 0.00 41 1011.6
20260503200712 24 19 6.4 16.1 0.00 0.00 0.00 40 1011.5
20260503195711 24 63 6.4 14.5 0.00 0.00 0.00 42 1011.6
20260503195213 24 36 6.4 14.5 0.00 0.00 0.00 40 1011.7
20260503194711 24 44 6.4 14.5 0.00 0.00 0.00 41 1011.8
20260503194211 24 28 6.4 14.5 0.00 0.00 0.00 40 1011.8
20260503193711 24 280 4.8 14.5 0.00 0.00 0.00 40 1011.9
20260503193209 24 331 4.8 12.9 0.00 0.00 0.00 41 1011.9
20260503192710 23 89 4.8 16.1 0.00 0.00 0.00 42 1012.0
20260503192210 23 83 4.8 16.1 0.00 0.00 0.00 42 1012.1
20260503191707 23 39 4.8 14.5 0.00 0.00 0.00 42 1012.1
20260503191214 22 74 8.0 19.3 0.00 0.00 0.00 42 1012.2
20260503191208 23 98 8.0 14.5 0.00 0.00 0.00 42 1012.2
20260503190214 22 41 8.0 19.3 0.00 0.00 0.00 43 1012.3
20260503190209 22 79 8.0 19.3 0.00 0.00 0.00 42 1012.2
20260503185213 22 77 6.4 20.9 0.00 0.00 0.00 42 1012.3
20260503185207 22 53 6.4 19.3 0.00 0.00 0.00 43 1012.3
20260503184208 22 323 6.4 20.9 0.00 0.00 0.00 44 1012.4
20260503183708 22 51 6.4 17.7 0.00 0.00 0.00 44 1012.6
20260503183206 22 86 6.4 14.5 0.00 0.00 0.00 44 1012.7
20260503182711 22 92 6.4 16.1 0.00 0.00 0.00 45 1012.8
20260503182706 22 46 4.8 16.1 0.00 0.00 0.00 44 1012.7
20260503181706 22 33 6.4 17.7 0.00 0.00 0.00 45 1012.8
20260503181207 22 300 4.8 17.7 0.00 0.00 0.00 46 1012.8
20260503180705 22 68 6.4 17.7 0.00 0.00 0.00 46 1012.8
20260503180206 21 77 6.4 17.7 0.00 0.00 0.00 46 1012.8
20260503175705 22 77 6.4 16.1 0.00 0.00 0.00 46 1012.9
20260503175204 21 357 6.4 16.1 0.00 0.00 0.00 46 1013.0
20260503174710 21 52 6.4 16.1 0.00 0.00 0.00 47 1013.0
20260503174706 21 68 6.4 14.5 0.00 0.00 0.00 48 1013.0
20260503173706 21 37 6.4 16.1 0.00 0.00 0.00 47 1013.0
20260503173204 21 84 4.8 14.5 0.00 0.00 0.00 49 1013.0
20260503172703 20 71 4.8 14.5 0.00 0.00 0.00 49 1013.0
20260503172205 20 354 6.4 16.1 0.00 0.00 0.00 49 1013.1
20260503171703 20 111 6.4 16.1 0.00 0.00 0.00 49 1013.2
20260503171204 20 34 4.8 14.5 0.00 0.00 0.00 50 1013.2
20260503170703 19 330 8.0 19.3 0.00 0.00 0.00 53 1013.2
20260503170202 19 52 9.7 22.5 0.00 0.00 0.00 52 1013.2
20260503160156 17 32 6.4 17.7 0.00 0.00 0.00 57 1013.4
20260503150153 16 53 1.6 8.0 0.00 0.00 0.00 63 1013.4
20260503140159 11 63 0.0 0.0 0.00 0.00 0.00 77 1013.1
20260503140154 12 63 0.0 0.0 0.00 0.00 0.00 76 1013.1
20260503131154 10 131 0.0 0.0 0.00 0.00 0.00 80 1013.1
20260503130654 10 131 0.0 0.0 0.00 0.00 0.00 80 1013.1
20260503130153 10 131 0.0 0.0 0.00 0.00 0.00 80 1013.2
20260503120151 10 131 0.0 0.0 0.00 0.00 0.00 77 1013.2